SCP
0 0 0 0 0 0 0 0 0 0 0 0 0 0 0 0 0 0 0 0 0 0 0 0 0 0 0 0 0 0 0 0 0 0 0 0 0 0 0 0 0 0 -0
0 0 0 0 0 0 0 0 0 0 0 0 0 0 0 0 0 0 0 0 0 0 0 0 0 0 0 0 0 0 0 0 0 0 0 0 0 0 0 0 0 0 0
0 0 0 0 0 0 0 0 0 0 0 0 0 0 0 0 0 0 0 0 0 0 0 0 0 0 0 0 0 0 0 0 0 0 0 0 0 0 0 0 0 0 0
0 0 0 0 0 0 0 0 0 0 0 0 0 0 0 0 0 0 0 0 0 0 0 0 0 0 0 0 0 0 0 0 0 0 0 0 0 0 0 0 0 0 0
0 0 0 0 0 0 0 0 0 0 0 0 0 0 0 0 0 0 0 0 0 0 0 0 0 0 0 0 0 0 0 0 0 0 0 0 0 0 0 0 0 0 0
0 0 0 0 0 0 0 0 0 0 0 0 0 0 0 0 0 0 0 0 0 0 0 0 0 0 0 0 0 0 0 0 0 0 0 0 0 0 0 0 0 0 0
0 0 0 0 0 0 0 0 0 0 0 0 0 0 0 0 0 0 0 0 0 0 0 0 0 0 0 0 0 0 0 0 0 0 0 0 0 0 0 0 0 0 0
0 0 0 0 0 0 0 0 0 0 0 0 0 0 0 0 0 0 0 0 0 0 0 0 0 0 0 0 0 0 0 0 0 0 0 0 0 0 0 0 0 0 0
0 0 0 0 0 0 0 0 0 0 0 0 0 0 0 0 0 0 0 0 0 0 0 0 0 0 0 0 0 0 0 0 0 0 0 0 0 0 0 0 0 0 0
0 0 0 0 0 0 0 0 0 0 0 0 0 0 0 0 0 0 0 0 0 0 0 0 0 0 0 0 0 0 0 0 0 0 0 0 0 0 0 0 0 0 0
0 0 0 0 0 0 0 0 0 0 0 0 0 0 0 0 0 0 0 0 0 0 0 0 0 0 0 0 0 0 0 0 0 0 0 0 0 0 0 0 0 0 0
0 0 0 0 0 0 0 0 0 0 0 0 0 0 0 0 0 0 0 0 0 0 0 0 0 0 0 0 0 0 0 0 0 0 0 0 0 0 0 0 0 0 0
0 0 0 0 0 0 0 0 0 0 0 0 0 0 0 0 0 0 0 0 0 0 0 0 0 0 0 0 0 0 0 0 0 0 0 0 0 0 0 0 0 0 0
0 0 0 0 0 0 0 0 0 0 0 0 0 0 0 0 0 0 0 0 0 0 0 0 0 0 0 0 0 0 0 0 0 0 0 0 0 0 0 0 0 0 0
0 0 0 0 0 0 0 0 0 0 0 0 0 0 0 0 0 0 0 0 0 0 0 0 0 0 0 0 0 0 0 0 0 0 0 0 0 0 0 0 0 0 0
0 0 0 0 0 0 0 0 0 0 0 0 0 0 0 0 0 0 0 0 0 0 0 0 0 0 0 0 0 0 0 0 0 0 0 0 0 0 0 0 0 0 0
0 0 0 0 0 0 0 0 0 0 0 0 0 0 0 0 0 0 0 0 0 0 0 0 0 0 0 0 0 0 0 0 0 0 0 0 0 0 0 0 0 0 0
0 0 0 0 0 0 0 0 0 0 0 0 0 0 0 0 0 0 0 0 0 0 0 0 0 0 0 0 0 0 0 0 0 0 0 0 0 0 0 0 0 0 0
0 0 0 0 0 0 0 0 0 0 0 0 0 0 0 0 0 0 0 0 0 0 0 0 0 0 0 0 0 0 0 0 0 0 0 0 0 0 0 0 0 0 0
0 0 0 0 0 0 0 0 0 0 0 0 0 0 0 0 0 0 0 0 0 0 0 0 0 0 0 0 0 0 0 0 0 0 0 0 0 0 0 0 0 0 0
0 0 0 0 0 0 0 0 0 0 0 0 0 0 0 0 0 0 0 0 0 0 0 0 0 0 0 0 0 0 0 0 0 0 0 0 0 0 0 0 0 0 0
0 0 0 0 0 0 0 0 0 0 0 0 0 0 0 0 0 0 0 0 0 0 0 0 0 0 0 0 0 0 0 0 0 0 0 0 0 0 0 0 0 0 0
0 0 0 0 0 0 0 0 0 0 0 0 0 0 0 0 0 0 0 0 0 0 0 0 0 0 0 0 0 0 0 0 0 0 0 0 0 0 0 0 0 0 0
0 0 0 0 0 0 0 0 0 0 0 0 0 0 0 0 0 0 0 0 0 0 0 0 0 0 0 0 0 0 0 0 0 0 0 0 0 0 0 0 0 0 0
0 0 0 0 0 0 0 0 0 0 0 0 0 0 0 0 0 0 0 0 0 0 0 0 0 0 0 0 0 0 0 0 0 0 0 0 0 0 0 0 0 0 0
0 0 0 0 0 0 0 0 0 0 0 0 0 0 0 0 0 0 0 0 0 0 0 0 0 0 0 0 0 0 0 0 0 0 0 0 0 0 0 0 0 0 0
Wind_Speed
5 5 6 8 9 9 10 10 10 10 11 12 13 13 13 12 12 12 11 10 10 11 12 14 15 14 12 10 9 9 9 9 8 9 10 11 10 7 2 2 1 2 5
8 6 8 8 10 10 11 12 12 12 13 13 13 13 13 12 12 11 11 12 12 13 14 15 15 14 14 12 10 8 8 8 8 9 10 10 11 7 1 3 2 2 5
9 7 7 9 10 11 11 11 11 12 13 13 14 13 13 11 11 11 11 11 12 12 13 13 14 14 13 13 13 11 10 10 9 9 9 6 6 5 6 5 5 7 9
10 8 7 10 12 11 10 9 9 10 11 13 13 12 11 10 11 12 11 10 10 11 11 12 13 13 13 13 13 13 13 13 13 12 6 5 5 3 5 5 6 8 9
8 7 7 12 13 12 11 10 10 10 11 12 12 11 10 10 11 11 10 10 10 10 11 12 12 12 12 12 12 12 13 15 15 11 7 6 5 8 3 4 5 5 5
8 7 7 12 14 13 13 12 12 12 12 12 12 12 11 11 11 10 10 10 10 11 11 11 11 12 11 12 12 12 13 15 12 8 8 8 6 12 11 1 3 3 3
8 6 7 12 14 14 15 15 15 15 14 14 13 13 12 11 11 10 10 10 10 10 11 11 11 11 11 11 12 12 14 14 9 7 7 8 10 17 16 6 2 2 3
9 7 7 11 12 14 15 16 15 15 15 14 14 13 13 13 12 10 10 10 9 9 10 11 11 11 12 13 14 15 15 14 10 8 6 6 12 16 15 12 3 0 1
9 8 6 6 9 12 13 14 14 15 14 14 13 13 13 13 11 9 9 9 9 10 11 11 12 13 13 13 14 15 15 16 8 6 8 6 16 17 16 16 13 7 5
8 9 8 6 6 6 7 12 13 14 14 14 14 13 13 13 11 10 8 9 9 11 11 12 12 12 12 13 14 15 14 12 7 6 5 9 18 18 17 17 16 15 13
10 10 10 9 7 6 5 8 11 13 14 13 12 12 10 6 6 6 7 9 10 10 11 11 11 11 11 11 12 13 10 4 5 5 5 14 17 17 16 17 17 17 16
16 13 11 11 10 8 7 5 5 5 6 6 4 5 5 4 4 5 9 10 10 10 10 10 11 10 8 4 7 9 3 5 4 4 6 15 17 17 16 16 16 16 17
15 13 13 13 11 9 6 5 4 3 4 5 6 6 5 4 4 4 3 5 5 7 5 5 5 3 4 4 3 4 4 4 3 4 6 14 16 16 15 15 15 15 16
10 15 14 13 12 10 8 6 5 4 4 4 5 6 4 3 4 4 3 3 3 2 2 2 2 4 5 5 5 5 6 4 4 3 5 15 16 16 15 15 15 15 15
13 15 15 15 15 12 9 7 7 6 5 5 5 5 6 5 5 5 4 3 3 2 2 2 2 4 4 5 5 6 6 6 5 5 5 13 15 14 13 13 13 14 15
19 17 15 16 15 14 11 9 7 6 6 5 5 6 7 6 6 5 5 4 3 2 2 2 3 3 3 4 5 6 6 6 5 6 5 8 13 13 12 12 12 13 14
19 17 17 17 15 15 13 11 8 7 7 6 5 6 7 6 7 6 5 4 3 3 3 2 3 3 3 4 4 5 5 6 6 6 6 5 6 10 12 13 13 13 14
15 17 19 17 17 17 14 11 8 8 8 6 6 6 7 7 7 6 5 4 4 3 2 2 2 3 3 3 4 4 5 5 5 6 5 5 4 5 7 12 13 14 14
19 19 20 19 20 17 13 10 9 8 8 7 7 6 7 7 7 6 5 4 4 3 2 2 3 2 2 3 4 4 5 5 5 5 5 6 5 4 4 7 11 12 14
17 18 18 18 17 15 11 8 6 8 7 7 7 7 7 6 7 6 5 6 5 4 3 2 3 2 1 2 4 5 5 4 4 3 4 4 5 5 5 5 5 8 15
14 15 18 18 18 16 13 12 11 11 9 7 7 9 9 8 8 7 6 5 5 4 4 4 3 3 2 2 3 5 5 4 3 1 2 3 3 4 6 6 6 6 7
18 18 19 20 21 20 15 11 6 6 5 5 6 8 9 9 8 8 8 6 5 4 4 3 3 3 2 3 3 3 5 6 5 3 3 3 3 4 7 9 8 9 8
17 20 19 21 19 17 13 9 7 5 4 4 7 8 8 9 8 7 8 6 6 5 5 4 4 5 4 2 2 3 1 3 5 4 4 3 4 5 4 4 6 7 8
16 15 16 17 17 14 15 15 17 13 12 12 8 8 8 9 9 8 8 7 7 5 6 5 4 4 5 3 2 2 2 2 2 6 4 2 4 4 5 6 6 6 7
11 13 14 15 15 14 16 16 16 12 8 5 6 9 8 7 8 8 8 7 7 6 6 6 5 5 4 4 3 2 1 0 2 2 8 8 6 3 4 5 5 6 6
9 10 12 15 15 15 17 17 18 16 12 10 10 11 9 6 7 9 8 7 7 6 6 6 5 6 5 5 4 3 3 2 2 2 4 5 10 8 8 6 5 5 4
Wind_Direction
173 190 173 160 144 146 151 150 146 141 133 123 112 105 100 93 83 72 67 63 57 57 62 60 54 48 43 39 34 34 37 29 19 2 352 349 349 338 322 86 32 11 25
160 166 156 149 137 129 131 131 130 132 130 119 109 101 94 87 83 73 60 54 52 53 55 54 50 42 34 32 30 27 31 32 19 357 351 351 347 344 54 94 48 18 19
147 145 149 154 148 138 131 130 127 124 122 112 103 96 91 86 84 77 62 50 47 48 48 46 43 36 27 24 24 25 26 22 10 352 348 349 344 35 80 68 39 33 24
146 144 152 161 160 149 137 134 129 117 111 106 101 96 96 96 89 82 73 60 52 49 48 45 39 33 24 18 15 13 10 7 358 349 349 343 335 357 93 84 54 39 26
145 148 158 163 162 154 147 142 129 118 111 105 105 109 108 101 94 90 84 73 61 54 51 44 36 30 24 19 15 12 6 1 354 351 343 339 334 329 351 108 90 72 47
148 149 159 161 158 154 152 150 145 139 128 122 122 121 114 104 97 91 86 79 69 62 55 49 41 32 24 19 16 15 8 359 355 349 340 336 337 335 326 152 115 78 45
147 147 161 161 159 157 154 152 151 145 138 136 132 127 120 111 102 94 89 81 75 70 63 56 48 40 34 29 26 21 12 3 6 348 338 332 332 331 326 314 141 92 27
148 147 159 163 162 161 158 155 153 149 146 144 140 135 128 121 112 103 97 89 86 82 73 65 57 51 45 40 37 30 23 24 13 357 340 334 343 342 339 331 308 203 351
152 149 152 160 165 165 161 159 157 153 151 148 144 135 127 121 114 110 105 99 96 89 78 71 65 55 47 42 37 32 29 24 19 7 4 358 356 353 352 353 350 337 326
164 163 161 160 157 156 160 162 157 155 154 153 145 138 134 129 121 115 103 96 88 83 76 72 65 56 46 39 33 28 22 17 10 5 360 356 357 354 353 353 353 350 341
184 181 172 168 165 159 160 165 158 157 159 156 153 152 134 126 121 109 98 91 83 78 75 71 66 60 54 42 36 30 22 7 4 0 354 352 352 349 346 347 346 342 337
195 189 181 176 173 167 170 161 159 155 156 151 153 150 140 139 139 118 96 87 76 68 65 66 62 53 50 38 26 25 15 2 4 352 351 352 352 347 343 342 340 337 334
194 187 184 180 176 173 171 166 170 162 158 161 161 154 147 134 123 106 93 79 68 60 45 45 43 36 36 33 21 11 6 3 349 339 341 350 348 342 341 341 340 337 334
188 195 186 180 177 178 170 175 175 168 166 167 167 158 146 136 129 125 115 111 97 88 73 45 42 39 34 26 21 11 1 353 339 331 329 343 342 341 341 341 341 339 337
201 196 189 182 179 177 173 179 179 176 173 168 165 166 159 152 148 140 131 124 124 126 117 85 58 49 37 24 18 9 352 340 331 330 326 330 336 340 344 345 346 347 347
205 199 189 187 182 176 178 180 179 175 169 164 166 172 168 159 152 144 136 136 144 151 144 115 84 63 40 19 7 356 336 324 321 323 320 321 327 336 343 347 352 353 352
204 195 189 188 182 180 179 179 174 171 167 169 169 169 168 161 154 145 143 150 160 158 141 122 94 77 53 23 357 337 322 315 320 320 317 312 314 325 337 346 348 350 355
198 193 192 187 184 184 180 175 171 168 168 171 167 168 169 163 156 147 148 156 163 151 130 104 67 59 39 13 340 322 313 308 320 314 311 306 305 312 329 337 342 349 355
200 194 190 187 183 182 173 168 165 163 168 171 170 171 170 163 157 148 151 157 156 139 120 103 74 70 28 354 330 317 309 314 321 316 315 310 313 316 323 337 349 352 357
203 195 189 184 177 169 161 153 154 162 171 172 173 172 167 165 159 151 154 161 155 143 136 125 113 84 47 340 329 320 304 313 310 304 309 320 334 351 10 12 6 358 1
196 189 183 178 173 169 172 173 174 181 176 175 176 173 172 170 166 161 158 157 160 156 154 147 127 102 59 8 20 345 329 322 312 239 314 339 11 23 31 28 14 6 355
194 187 181 180 176 179 181 177 166 150 160 171 171 175 176 175 173 170 163 161 164 149 147 158 152 127 83 40 71 30 348 339 330 343 329 338 23 26 23 14 8 360 343
191 185 183 181 178 177 163 146 129 116 110 164 185 183 184 178 175 170 167 159 161 153 160 178 177 144 132 83 79 112 74 300 296 297 316 339 9 14 10 356 347 331 314
193 182 179 177 175 170 163 167 170 183 190 190 179 176 177 178 177 172 167 164 163 159 166 180 193 150 132 132 103 96 140 163 306 316 309 331 346 348 342 329 320 305 301
175 172 173 170 171 168 171 175 183 193 189 152 149 168 177 182 179 173 169 168 169 164 169 176 178 151 131 139 144 138 128 119 209 260 305 319 322 309 309 301 293 292 297
159 164 169 171 174 172 175 180 190 192 178 168 175 179 181 179 182 180 173 173 174 169 171 171 177 154 134 133 142 152 160 170 183 204 264 299 303 305 303 287 277 281 292